Regional Weather Roundup
Issued by NWS San Angelo, TX

Home | Current Version | Previous Version | Text Only | Print | Product List | Glossary On
Versions: 1 2 3 4 5 6 7 8 9 10 11 12 13 14 15 16 17 18 19 20 21 22 23 24 25 26 27 28 29 30 31 32 33 34 35 36 37 38 39 40 41 42 43 44 45 46 47 48 49 50
000
ASUS44 KSJT 011510
RWRSJT
WEST CENTRAL TEXAS REGIONAL WEATHER ROUNDUP
NATIONAL WEATHER SERVICE SAN ANGELO TX
900 AM CST SUN FEB 01 2015

NOTE: "FAIR" INDICATES FEW OR NO CLOUDS BELOW 12,000 FEET WITH NO
SIGNIFICANT WEATHER AND/OR OBSTRUCTIONS TO VISIBILITY.

TXZ049-054-064>066-071>073-076>078-098-099-113-114-127-128-139-140-
154-155-168>170-011600
...LOCATIONS ACROSS WEST CENTRAL TEXAS...

CITY           SKY/WX    TMP DP  RH WIND       PRES   REMARKS
SAN ANGELO     SUNNY     51  48  89 NW7       29.98R
ABILENE        CLOUDY    52  48  86 NW17      29.98R
DYESS AFB      CLOUDY    51  48  89 NW13G22   29.98R
JUNCTION       CLOUDY    55  53  93 W8        29.96R
SWEETWATER     CLOUDY    49  47  91 NW14G20   30.03R
BROWNWOOD      CLOUDY    52  52 100 NW6       29.96R FOG
COLEMAN        MOSUNNY   53  53 100 NW8       29.96R
SONORA         CLOUDY    50  50 100 CALM      30.02R
OZONA          FOG       46  46 100 CALM      30.01R VSB 1
BRADY          NOT AVBL
$$

TEXAS PANHANDLE/OKLAHOMA PANHANDLE

CITY           SKY/WX    TMP DP  RH WIND       PRES   REMARKS
AMARILLO       CLOUDY    33  29  85 N18       30.10R WCI  22
BORGER         CLOUDY    33  24  69 N18G26    30.13R WCI  22
CANADIAN       PTSUNNY   33  23  69 N22G32    30.11R WCI  20
DALHART        MOSUNNY   34  25  69 N24       30.10R WCI  21
DUMAS          CLOUDY    31  27  83 N17       30.10R WCI  20
GUYMON         NOT AVBL
HEREFORD       PTSUNNY   37  34  87 N20       30.08R WCI  27
PAMPA          CLOUDY    30  26  84 N20G30    30.10R WCI  18
PERRYTON       MOSUNNY   28  23  80 N21G26    30.09R WCI  15
$$

SOUTHERN PANHANDLE/SOUTH PLAINS/ROLLING PLAINS

CITY           SKY/WX    TMP DP  RH WIND       PRES   REMARKS
LUBBOCK        MOSUNNY   40  37  89 N16       30.03R WCI  31
SNYDER         CLOUDY   N/A N/A N/A N20G25    30.02R
CHILDRESS      CLOUDY    39  34  82 N17       30.05R WCI  30
SEMINOLE       MOSUNNY   41  40  95 N9        30.06R WCI  35
$$

PERMIAN BASIN

CITY           SKY/WX    TMP DP  RH WIND       PRES   REMARKS
MIDLAND        FOG       45  44  97 N12       30.02R VSB 1/4 WCI  39
ODESSA         FOG       45  43  93 N9        30.03R VSB 1
WINK           FOG       42  39  89 N7        30.00R VSB 1/4 WCI  38
$$

FAR WEST/SOUTHWEST MOUNTAINS/TRANS PECOS

CITY           SKY/WX    TMP DP  RH WIND       PRES   REMARKS
ALPINE         SUNNY     49  39  67 W6        30.09R
DRYDEN           N/A     52  48  86 SW5       29.95R
EL PASO        MOSUNNY   44  40  85 NE9       30.04R WCI  39
FORT STOCKTON  SUNNY     49  42  77 SW12      30.00R
GUADALUPE PASS FOG       38  38 100 SW14      30.04R VSB<1/4 WCI  30
MARFA          SUNNY     39  37  93 CALM      30.06R
PECOS          SUNNY     39  38  97 NW5       30.02R WCI  35
$$

DALLAS/FORT WORTH METROPLEX

CITY           SKY/WX    TMP DP  RH WIND       PRES   REMARKS
DFW AIRPORT    CLOUDY    57  54  89 W10       29.89R
FTW MEACHAM    CLOUDY    57  54  89 W7        29.90R FOG
DAL-EXECUTIVE  CLOUDY    59  56  89 W7        29.89R
GRAND PRAIRIE  PTSUNNY   57  57 100 W6        29.91R
ADDISON        NOT AVBL
MESQUITE       PTSUNNY   59  55  88 W12G21    29.89R
LANCASTER      DRIZZLE   58  55  88 W10       29.91R
$$

NORTH CENTRAL TEXAS

CITY           SKY/WX    TMP DP  RH WIND       PRES   REMARKS
SHRMAN/DENISON CLOUDY    52  51  95 NW17G24   29.91R
GAINESVILLE    CLOUDY    50  47  88 NW17G26   29.93R
BRIDGEPORT     CLOUDY    51  51 100 NW14G22   29.95R
DENTON         CLOUDY    53  50  89 NW17G25   29.91R
WAXAHACHIE     CLOUDY    58  58  99 W10G17    29.91R
GRANBURY       CLOUDY    55  54  95 CALM      29.93R
$$

WESTERN NORTH TEXAS

CITY           SKY/WX    TMP DP  RH WIND       PRES   REMARKS
WICHITA FALLS  CLOUDY    44  38  79 N23G32    29.97R WCI  35
VERNON         CLOUDY    44  34  67 N22G29    30.03R WCI  36
BRECKENRIDGE   CLOUDY    55  52  90 NW10G18   29.96R
COMANCHE       CLOUDY    54  54 100 W8        29.95R
$$

CENTRAL AND SOUTH CENTRAL TEXAS

CITY           SKY/WX    TMP DP  RH WIND       PRES   REMARKS
AUSTIN/BERGSTM CLOUDY    62  60  93 S10       29.92R
WACO           SUNNY     62  60  93 SW9       29.90R
HILLSBORO      DRIZZLE   58  57  94 NW13      29.92R
TEMPLE         PTSUNNY   61  55  82 S6        29.92R
KILLEEN-GRAY   CLOUDY    61  59  94 SW6       29.92R
FORT HOOD      CLOUDY    61  60  94 SW5       29.92R
GEORGETOWN     CLOUDY    63  61  94 S10       29.91S
LAGO VISTA     CLOUDY    62  59  92 SW5       29.93R
SAN MARCOS     FOG       61  57  88 SW9       29.93R VSB 1
NEW BRAUNFELS  FOG       61  60  97 SW7       29.92R VSB 1/8
RANDOLPH AFB   FOG       60  59  97 S3        29.93R VSB 1/4
SAN ANTONIO    FOG       61  60  97 CALM      29.92S VSB 1/16
STINSON        FOG       59  59 100 CALM      29.92R VSB<1/4
PLEASANTON     NOT AVBL
LA GRANGE      SUNNY     66  63  91 S3        29.91S
GIDDINGS       PTSUNNY   63  61  94 SW8       29.96S
$$

EAST TEXAS

CITY           SKY/WX    TMP DP  RH WIND       PRES   REMARKS
PARIS          CLOUDY    55  52  88 W9        29.87R
CLARKSVILLE    NOT AVBL
TYLER          CLOUDY    62  59  90 SW12      29.86S
LONGVIEW       CLOUDY    61  58  90 S10       29.86F
PALESTINE      CLOUDY    62  62 100 S7        29.90R
NACOGDOCHES    CLOUDY    63  59  88 SW12      29.91R
$$

TEXAS HILL COUNTRY AND EDWARDS PLATEAU

CITY           SKY/WX    TMP DP  RH WIND       PRES   REMARKS
LLANO          CLOUDY    54  54 100 CALM      29.98R
HORSESHOE BAY  FAIR      61  60  96 CALM      29.93R
KERRVILLE      CLOUDY    59  57  93 CALM      29.94S
FREDERICKSBRG  CLOUDY    58  56  92 W5        29.95R
ROCKSPRINGS    NOT AVBL
HONDO          FOG       59  58  96 S3        29.95R VSB 1/4
UVALDE         FOG       57  57 100 CALM      29.96R VSB 1
DEL RIO        CLOUDY    57  55  93 W7        29.95R FOG
$$

SOUTHEAST TEXAS

CITY           SKY/WX    TMP DP  RH WIND       PRES   REMARKS
COLLEGE STN    CLOUDY    63  62  97 S9        29.92S
CALDWELL       PTSUNNY   63  63 100 S8        29.95R
CROCKETT       PTSUNNY   64  64 100 S10       29.93S
BRENHAM        SUNNY     66  64  91 S8        29.94S
HUNTSVILLE     CLOUDY    64  62  93 SW9       29.92S
CONROE         CLOUDY    64  61  90 SW9       29.95R
HOUSTON BUSH   PTSUNNY   65  63  93 SW5       29.95R
HOUSTON HOBBY  PTSUNNY   64  63  96 CALM      29.95S
PERLAND        MOSUNNY   65  63  93 S5        29.96S
WHARTON        PTSUNNY   63  63  99 S6        29.96S
$$

THE UPPER TEXAS COAST

CITY           SKY/WX    TMP DP  RH WIND       PRES   REMARKS
ORANGE         CLOUDY    62  62  99 S6        29.98S FOG
PORT ARTHUR    CLOUDY    64  61  90 S5        29.96S
GALVESTON      MOSUNNY   65  64  97 S7        29.97R
ANGLETON       MOSUNNY   65  64  97 S6        29.95S
BAY CITY       MOSUNNY   65  65 100 CALM      29.95S
$$

TEXAS COASTAL BEND, RIO GRANDE PLAINS DEEP SOUTH TEXAS

CITY           SKY/WX    TMP DP  RH WIND       PRES   REMARKS
VICTORIA       MOSUNNY   62  61  96 SE5       29.94S FOG
BEEVILLE       FAIR      60  60 100 CALM      29.93R FOG
ROCKPORT       PTSUNNY   68  61  78 S5        29.94R
PORT ARANSAS   MOSUNNY   64  61  88 S5        29.94R
PORT LAVACA    MOSUNNY   62  62 100 S5        29.94S
CORPUS CHRISTI PTSUNNY   65  62  90 CALM      29.94R
KINGSVILLE NAS PTSUNNY   63  63 100 CALM      29.95R
COTULLA        FOG       56  56 100 CALM      29.93R VSB<1/4
LAREDO         FOG       57  57 100 NW7       29.96R VSB 3/4
BROWNSVILLE    MOSUNNY   67  64  90 S13       29.93R
PORT ISABEL    MOSUNNY   68  64  87 S12       29.93R
HEBBRONVILLE   PTSUNNY   61  58  90 SW6       29.95R
MCALLEN        CLOUDY    66  59  78 S7        29.94R
WESLACO        PTSUNNY   66  61  82 S14       29.93R
FALFURRIAS     MOSUNNY   62  59  90 CALM      29.93S
EDINBURG       PTSUNNY   68  59  73 S8        29.94R
$$


USA.gov is the U.S. government's official web portal to all federal, state and local government web resources and services.